PD2SKZ-12 Weather Reports


time (UTC)temp
C
wind
direction
speed
KPH
gust
KPH
rain 1hr
cm
rain 24hr
cm
rain mn
cm
humidity
%
barometer
mb
20260503053545 14 143 1.6 3.2 0.00 6.60 1.19 96 1011.1
20260503053044 14 142 0.0 4.8 0.00 6.60 1.19 96 1011.1
20260503052545 14 151 0.0 6.4 0.00 6.60 1.19 96 1011.1
20260503052044 14 165 3.2 6.4 0.00 6.60 1.19 96 1011.2
20260503051545 14 157 3.2 4.8 0.00 6.60 1.19 96 1011.2
20260503051045 14 145 1.6 3.2 0.00 6.60 1.19 96 1011.2
20260503050624 14 0.0 0.0 0.00 6.60 1.19 96 1011.2
20260503050105 14 0.0 0.0 0.00 6.60 1.19 96 1011.3
20260503045545 14 0.0 0.0 0.00 6.60 1.19 96 1011.4
20260503045045 14 0.0 0.0 0.00 6.60 1.19 96 1011.4
20260503044544 13 0.0 0.0 0.00 6.60 1.19 96 1011.4
20260503044045 13 0.0 0.0 0.00 6.60 1.19 96 1011.4
20260503043545 13 0.0 0.0 0.00 6.60 1.19 96 1011.4
20260503043045 13 0.0 0.0 0.00 6.60 1.19 96 1011.5
20260503042625 13 0.0 0.0 0.00 6.60 1.19 96 1011.4
20260503042045 13 0.0 0.0 0.00 6.60 1.19 96 1011.5
20260503041545 13 0.0 0.0 0.00 6.60 1.19 96 1011.5
20260503041105 13 0.0 0.0 0.00 6.60 1.19 96 1011.6
20260503040628 13 0.0 0.0 0.00 6.60 1.19 96 1011.5
20260503040045 13 0.0 0.0 0.00 6.60 1.19 96 1011.5
20260503035544 14 0.0 0.0 0.20 6.60 1.19 96 1011.5
20260503035045 14 0.0 0.0 0.20 6.60 1.19 96 1011.4
20260503034545 14 0.0 0.0 0.20 6.60 1.19 96 1011.3
20260503034045 14 0.0 0.0 0.41 6.60 1.19 96 1011.4
20260503033545 14 0.0 0.0 0.79 6.60 1.19 96 1011.5
20260503033045 14 144 1.6 3.2 0.79 6.60 1.19 96 1011.5
20260503032545 14 0.0 3.2 0.79 6.60 1.19 95 1011.6
20260503032045 14 0.0 0.0 0.79 6.60 1.19 95 1011.6
20260503031545 14 145 1.6 3.2 0.79 6.60 1.19 95 1011.6
20260503031015 14 0.0 0.0 0.79 6.60 1.19 95 1011.7
20260503030445 14 0.0 1.6 0.79 6.60 1.19 95 1011.9
20260503030004 14 0.0 1.6 0.79 6.60 1.19 95 1012.1
20260503025445 14 0.0 0.0 0.61 6.40 0.99 95 1012.0
20260503024945 14 132 1.6 1.6 0.61 6.40 0.99 95 1012.0
20260503024505 14 132 1.6 3.2 0.79 6.40 0.99 95 1012.2
20260503023945 14 130 1.6 3.2 0.61 6.20 0.79 94 1012.5
20260503023444 15 130 1.6 3.2 0.41 5.79 0.41 94 1012.5
20260503022945 15 146 3.2 4.8 0.41 5.79 0.41 94 1012.6
20260503022505 14 145 3.2 4.8 0.41 5.79 0.41 94 1012.6
20260503021945 14 122 1.6 4.8 0.41 5.79 0.41 95 1012.6
20260503021445 14 162 4.8 8.0 0.41 5.79 0.41 95 1012.6
20260503020945 14 0.0 0.0 0.41 5.79 0.41 95 1012.6
20260503020445 14 151 1.6 3.2 0.41 5.79 0.41 95 1012.7
20260503015945 14 158 1.6 3.2 0.41 5.79 0.41 95 1012.7
20260503015415 14 0.0 0.0 0.41 5.79 0.41 95 1012.6
20260503014905 14 161 3.2 3.2 0.41 5.79 0.41 94 1012.6
20260503014345 14 135 1.6 3.2 0.20 5.59 0.20 94 1012.5
20260503013845 14 0.0 0.0 0.20 5.59 0.20 94 1012.7
20260503013345 14 0.0 0.0 0.00 5.41 0.00 94 1012.7
20260503012845 14 0.0 3.2 0.00 5.41 0.00 94 1012.7
20260503012345 14 152 1.6 4.8 0.00 5.41 0.00 94 1012.7
20260503011845 14 0.0 0.0 0.00 5.41 0.00 94 1012.7
20260503011344 14 0.0 0.0 0.00 5.41 0.00 94 1012.7
20260503010845 14 0.0 0.0 0.00 5.41 0.00 94 1012.5
20260503010345 14 0.0 0.0 0.00 5.41 0.00 94 1012.5
20260503005845 14 0.0 0.0 0.00 5.41 0.00 94 1012.4
20260503005345 14 0.0 0.0 0.00 5.41 0.00 94 1012.5
20260503004925 14 0.0 0.0 0.00 5.41 0.00 94 1012.5
20260503004345 14 153 1.6 1.6 0.00 5.41 0.00 94 1012.7
20260503003815 14 0.0 0.0 0.00 5.41 0.00 94 1012.7
20260503003245 14 153 0.0 1.6 0.00 5.41 0.00 94 1012.8
20260503002745 14 0.0 0.0 0.00 5.41 0.00 94 1012.8
20260503002245 14 0.0 0.0 0.00 5.41 0.00 94 1012.8
20260503001745 14 153 1.6 3.2 0.00 5.41 0.00 94 1012.8
20260503001245 14 147 1.6 4.8 0.00 5.41 0.00 94 1012.9
20260503000745 14 0.0 0.0 0.00 5.41 0.00 94 1012.8
20260503000245 14 0.0 4.8 0.00 5.41 0.00 94 1012.8
20260502235745 14 0.0 0.0 0.00 5.41 0.00 94 1012.8
20260502235245 14 109 1.6 1.6 0.00 5.41 0.00 94 1012.9
20260502234745 14 0.0 3.2 0.00 5.41 0.00 94 1012.9
20260502234245 14 88 1.6 3.2 0.00 5.41 0.00 94 1012.9
20260502233745 14 0.0 3.2 0.00 5.41 0.00 94 1013.0
20260502233245 14 0.0 1.6 0.00 5.41 0.00 94 1013.2
20260502232745 14 0.0 0.0 0.00 5.41 0.00 94 1013.2
20260502232215 14 0.0 1.6 0.00 5.41 0.00 94 1013.2
20260502231615 14 0.0 1.6 0.00 5.41 0.00 94 1013.3
20260502231045 14 0.0 0.0 0.00 5.41 0.00 94 1013.4
20260502230545 14 0.0 3.2 0.00 5.41 0.00 94 1013.3
20260502230045 14 0.0 3.2 0.00 5.41 0.00 94 1013.3
20260502225545 14 144 0.0 3.2 0.00 5.41 0.00 93 1013.4
20260502225105 14 0.0 0.0 0.00 5.41 0.00 93 1013.4
20260502224545 14 0.0 0.0 0.00 5.41 0.00 93 1013.4
20260502224045 14 313 1.6 4.8 0.00 5.41 0.00 93 1013.5
20260502223545 14 0.0 1.6 0.00 5.41 0.00 93 1013.5
20260502223046 14 74 0.0 4.8 0.20 5.41 0.00 93 1013.5
20260502222515 14 0.0 3.2 0.41 5.41 0.00 93 1013.4
20260502221915 14 236 1.6 4.8 0.61 5.41 0.00 92 1013.3
20260502221505 14 91 3.2 4.8 0.79 5.41 0.00 92 1013.4
20260502220945 14 0.0 3.2 1.19 5.41 0.00 92 1013.5
20260502220445 14 0.0 3.2 1.60 5.41 0.00 92 1013.6
20260502215945 14 56 0.0 4.8 1.80 5.41 5.41 92 1013.6
20260502215446 14 131 1.6 6.4 2.21 5.41 5.41 92 1013.6
20260502214945 14 160 3.2 6.4 3.00 5.41 5.41 92 1013.7
20260502214445 14 156 1.6 6.4 4.60 5.41 5.41 91 1013.7
20260502213945 14 105 3.2 3.2 5.21 5.41 5.41 91 1013.7
20260502213445 14 147 1.6 6.4 5.00 5.21 5.21 90 1013.8
20260502212945 14 77 1.6 3.2 5.00 5.21 5.21 88 1013.8
20260502212445 14 191 1.6 4.8 4.80 5.00 5.00 87 1013.9
20260502211946 14 0.0 1.6 4.60 4.80 4.80 86 1014.0
20260502211505 14 102 0.0 4.8 4.39 4.60 4.60 86 1013.8
20260502210945 15 0.0 1.6 3.99 4.19 4.19 87 1014.2
20260502210445 15 0.0 3.2 3.61 3.81 3.81 86 1014.6
20260502210005 15 145 1.6 3.2 3.40 3.61 3.61 84 1014.9
20260502205445 15 131 3.2 3.2 3.00 3.20 3.20 83 1015.2
20260502204946 15 0.0 3.2 2.21 2.39 2.39 81 1015.4
20260502204415 16 263 4.8 4.8 0.61 0.79 0.79 73 1015.4
20260502203846 16 247 4.8 8.0 0.00 0.20 0.20 61 1015.1
20260502203345 16 0.0 0.0 0.00 0.20 0.20 58 1014.7
20260502202845 16 279 1.6 3.2 0.00 0.20 0.20 58 1014.2
20260502202345 16 0.0 0.0 0.00 0.20 0.20 57 1014.3
20260502201846 16 0.0 3.2 0.00 0.20 0.20 57 1014.2
20260502201345 16 346 1.6 3.2 0.00 0.20 0.20 57 1014.2
20260502200845 16 346 1.6 3.2 0.00 0.20 0.20 58 1014.3
20260502200345 16 318 1.6 4.8 0.00 0.20 0.20 57 1014.3
20260502195846 16 0.0 1.6 0.00 0.20 0.20 57 1014.4
20260502195346 16 289 1.6 4.8 0.00 0.20 0.20 57 1014.4
20260502194905 16 302 1.6 3.2 0.00 0.20 0.20 57 1014.4
20260502194406 16 282 1.6 4.8 0.00 0.20 0.20 57 1014.5
20260502193845 16 0.0 3.2 0.00 0.20 0.20 57 1014.5
20260502193346 16 279 3.2 3.2 0.00 0.20 0.20 57 1014.6
20260502192815 16 285 1.6 3.2 0.00 0.20 0.20 56 1014.7
20260502192245 16 79 1.6 3.2 0.00 0.20 0.20 57 1014.8
20260502191805 16 290 1.6 4.8 0.00 0.20 0.20 58 1014.7
20260502191245 16 0.0 4.8 0.00 0.20 0.20 57 1014.7
20260502190746 16 0.0 0.0 0.00 0.20 0.20 57 1014.7
20260502190245 17 299 1.6 3.2 0.00 0.20 0.20 56 1014.7
20260502185745 17 298 1.6 3.2 0.00 0.20 0.20 56 1014.6
20260502185246 17 310 1.6 3.2 0.00 0.20 0.20 55 1014.6
20260502184805 17 293 3.2 3.2 0.00 0.20 0.20 55 1014.6
20260502184245 17 313 3.2 3.2 0.00 0.20 0.20 54 1014.6
20260502183746 17 319 4.8 6.4 0.00 0.20 0.20 53 1014.6
20260502183245 17 324 6.4 8.0 0.00 0.20 0.20 53 1014.6
20260502182806 17 318 3.2 8.0 0.00 0.20 0.20 54 1014.7
20260502182246 17 325 4.8 4.8 0.00 0.20 0.20 53 1014.6
20260502181747 17 285 4.8 8.0 0.00 0.20 0.20 54 1014.8
20260502181306 17 297 4.8 6.4 0.00 0.20 0.20 55 1014.7
20260502180746 18 306 3.2 4.8 0.00 0.20 0.20 55 1014.7
20260502180245 18 322 6.4 8.0 0.00 0.20 0.20 54 1014.8
20260502170246 22 296 1.6 4.8 0.00 0.20 0.20 42 1015.1
20260502164247 22 293 4.8 6.4 0.00 0.20 0.20 41 1015.6
20260502163746 23 282 1.6 3.2 0.00 0.20 0.20 40 1015.7
20260502163246 23 319 4.8 8.0 0.00 0.20 0.20 39 1015.7
20260502162746 23 277 1.6 3.2 0.00 0.20 0.20 39 1015.8
20260502162247 23 0.0 0.0 0.00 0.20 0.20 39 1015.9
20260502161746 23 277 3.2 4.8 0.00 0.20 0.20 38 1016.0
20260502161246 22 249 1.6 8.0 0.00 0.20 0.20 40 1016.1
20260502160806 22 278 1.6 6.4 0.00 0.20 0.20 40 1016.1
20260502160245 22 284 6.4 8.0 0.00 0.20 0.20 40 1016.1
20260502152246 22 290 4.8 8.0 0.00 0.20 0.20 40 1016.5
20260502151746 23 272 8.0 9.7 0.00 0.20 0.20 39 1016.6
20260502151246 23 286 1.6 4.8 0.00 0.20 0.20 40 1016.6
20260502150747 23 304 4.8 8.0 0.00 0.20 0.20 40 1016.6
20260502150246 23 285 3.2 8.0 0.00 0.20 0.20 40 1016.7
20260502130747 21 298 3.2 11.3 0.00 0.20 0.20 55 1018.0
20260502130246 22 279 1.6 4.8 0.00 0.20 0.20 53 1018.0
20260502123746 21 271 1.6 6.4 0.00 0.20 0.20 58 1018.2
20260502123246 20 304 4.8 11.3 0.00 0.20 0.20 58 1018.2
20260502122746 21 306 3.2 8.0 0.00 0.20 0.20 57 1018.3
20260502122246 21 310 4.8 8.0 0.00 0.20 0.20 56 1018.4
20260502121746 21 320 1.6 6.4 0.00 0.20 0.20 58 1018.4
20260502121246 22 144 0.0 3.2 0.00 0.20 0.20 57 1018.5
20260502120746 22 295 3.2 4.8 0.00 0.20 0.20 60 1018.5
20260502120246 21 285 3.2 9.7 0.00 0.20 0.20 61 1018.5
20260502115809 22 140 1.6 6.4 0.00 0.20 0.20 60 1018.5
20260502115246 21 0.0 3.2 0.00 0.20 0.20 63 1018.5
20260502114746 22 0.0 4.8 0.00 0.20 0.20 61 1018.7
20260502114246 21 278 6.4 8.0 0.00 0.20 0.20 61 1018.6
20260502113806 21 132 1.6 6.4 0.00 0.20 0.20 63 1018.7
20260502113246 21 153 3.2 8.0 0.00 0.20 0.20 63 1018.8
20260502112746 22 237 0.0 3.2 0.00 0.20 0.20 65 1018.7
20260502112246 21 0.0 6.4 0.00 0.20 0.20 67 1018.8
20260502111747 20 309 1.6 8.0 0.00 0.20 0.20 69 1018.9
20260502111246 20 283 4.8 8.0 0.00 0.20 0.20 69 1018.9
20260502110746 21 283 1.6 3.2 0.00 0.20 0.20 69 1018.9
20260502110246 20 89 0.0 8.0 0.00 0.20 0.20 71 1019.0
20260502105746 21 320 8.0 9.7 0.00 0.20 0.20 68 1018.9
20260502105246 21 304 6.4 9.7 0.00 0.20 0.20 69 1018.9
20260502104806 21 161 1.6 3.2 0.00 0.20 0.20 68 1019.0
20260502104246 21 300 1.6 6.4 0.00 0.20 0.20 70 1019.1
20260502103747 20 312 6.4 8.0 0.00 0.20 0.20 70 1019.0
20260502103246 20 270 3.2 8.0 0.00 0.20 0.20 71 1019.1
20260502102746 20 319 4.8 6.4 0.00 0.20 0.20 72 1019.1
20260502102249 20 324 3.2 8.0 0.00 0.20 0.20 73 1019.1
20260502101746 20 294 4.8 6.4 0.00 0.20 0.20 71 1019.1
20260502101246 20 0.0 3.2 0.00 0.20 0.20 74 1019.2
20260502100746 19 320 8.0 11.3 0.00 0.20 0.20 73 1019.2
20260502100246 20 293 4.8 8.0 0.00 0.20 0.20 73 1019.2
20260502091246 19 317 1.6 4.8 0.00 0.20 0.20 78 1019.3
20260502090746 18 0.0 3.2 0.00 0.20 0.20 80 1019.3
20260502090246 18 282 0.0 3.2 0.00 0.20 0.20 80 1019.4
20260502071249 14 0.0 0.0 0.20 0.20 0.20 90 1019.0
20260502070746 14 0.0 0.0 0.20 0.20 0.20 89 1018.9
20260502070247 13 0.0 0.0 0.20 0.20 0.20 89 1018.9
20260502065746 13 0.0 0.0 0.20 0.20 0.20 89 1018.9
20260502065247 13 0.0 0.0 0.20 0.20 0.20 88 1018.8
20260502064746 13 0.0 0.0 0.20 0.20 0.20 88 1018.8
20260502064246 13 0.0 0.0 0.20 0.20 0.20 87 1018.7
20260502063747 13 0.0 0.0 0.00 0.00 0.00 87 1018.8
20260502063247 13 0.0 0.0 0.00 0.00 0.00 85 1019.0
20260502062747 13 0.0 0.0 0.00 0.00 0.00 83 1019.0
20260502062306 13 0.0 0.0 0.00 0.00 0.00 82 1019.0
20260502061716 13 0.0 0.0 0.00 0.00 0.00 80 1019.0
20260502061146 14 0.0 0.0 0.00 0.00 0.00 77 1019.1
20260502060646 14 0.0 0.0 0.00 0.00 0.00 75 1019.1
20260502060147 14 0.0 0.0 0.00 0.00 0.00 73 1019.1
20260502055647 14 0.0 0.0 0.00 0.00 0.00 69 1019.2
20260502055207 14 0.0 0.0 0.00 0.00 0.00 67 1019.1
20260502054646 14 0.0 0.0 0.00 0.00 0.00 66 1019.1
20260502054146 13 0.0 0.0 0.00 0.00 0.00 66 1019.1